Weather History for Miami, FL

Change the Weather History Date:

Sunday, April 7, 2013

  Actual Average Record
Temperature  
Mean Temperature 73 °F 75 °F  
Max Temperature 80 °F 82 °F 93 °F (1956)
Min Temperature 66 °F 67 °F 42 °F (1950)
Degree Days  
Heating Degree Days 0 0  
Month to date heating degree days 0 0  
Since 1 July heating degree days 70 127  
Cooling Degree Days 8 10  
Month to date cooling degree days 65 66  
Year to date cooling degree days 677 635  
Growing Degree Days 23 (Base 50)    
Moisture  
Dew Point 61 °F    
Average Humidity 65    
Maximum Humidity 76    
Minimum Humidity 54    
Precipitation  
Precipitation T in 0.10 in 4.02 in (1980)
Month to date precipitation 2.15 0.74  
Year to date precipitation 5.35 7.61  
Snow  
Snow 0.00 in - - ()
Month to date snowfall 0.0  
Since 1 July snowfall 0.0  
Snow Depth 0.00 in    
Sea Level Pressure  
Sea Level Pressure 30.09 in    
Wind  
Wind Speed 9 mph (East)    
Max Wind Speed 18 mph    
Max Gust Speed 24 mph    
Visibility 10 miles    
Events Rain    
T = Trace of Precipitation, MM = Missing Value Source: NWS Daily Summary

Daily Weather History Graph

Daily Weather History Graph

Search for Another Location

Airport:

Trip Planner

Search our weather history database for the weather conditions in past years. The results will help you decide how hot, cold, wet, or windy it might be!

Date:

Astronomy

Apr. 07, 2013 Rise Set
Actual Time 7:06 AM EDT 7:40 PM EDT
Civil Twilight 6:42 AM EDT 8:04 PM EDT
Nautical Twilight 6:15 AM EDT 8:31 PM EDT
Astronomical Twilight 5:47 AM EDT 8:59 PM EDT
Moon 5:07 AM EDT (4/7) 5:23 PM EDT (4/7)
Length of Visible Light 13h 21m
Length of Day
12h 34m
Waning Crescent, 8% of the Moon is Illuminated
Apr 7
Waning Crescent
Apr 10
New
Apr 18
First Quarter
Apr 25
Full
May 2
Last Quarter

Hourly Weather History & Observations

Time (EDT) Temp. Heat Index Dew Point Humidity Pressure Visibility Wind Dir Wind Speed Gust Speed Precip Events Conditions
12:53 AM 71.1 °F - 60.1 °F 68% 30.09 in 10.0 mi NE 4.6 mph - N/A   Partly Cloudy
1:53 AM 71.1 °F - 60.1 °F 68% 30.06 in 10.0 mi East 6.9 mph - N/A   Partly Cloudy
2:53 AM 70.0 °F - 60.1 °F 71% 30.04 in 10.0 mi East 8.1 mph - N/A   Partly Cloudy
3:53 AM 69.1 °F - 59.0 °F 70% 30.03 in 10.0 mi East 6.9 mph - N/A   Partly Cloudy
4:53 AM 70.0 °F - 59.0 °F 68% 30.03 in 10.0 mi Calm Calm - N/A   Partly Cloudy
5:53 AM 66.9 °F - 57.9 °F 73% 30.04 in 10.0 mi Calm Calm - N/A   Partly Cloudy
6:53 AM 68.0 °F - 60.1 °F 76% 30.06 in 10.0 mi East 5.8 mph - N/A   Scattered Clouds
7:53 AM 72.0 °F - 61.0 °F 68% 30.08 in 10.0 mi East 5.8 mph - N/A   Mostly Cloudy
8:53 AM 75.0 °F - 63.0 °F 66% 30.10 in 10.0 mi ENE 10.4 mph - N/A   Mostly Cloudy
9:53 AM 75.9 °F - 62.1 °F 62% 30.12 in 10.0 mi East 9.2 mph - N/A   Mostly Cloudy
10:53 AM 78.1 °F - 63.0 °F 60% 30.13 in 10.0 mi NE 8.1 mph - N/A   Mostly Cloudy
11:53 AM 80.1 °F 81.2 °F 62.1 °F 54% 30.13 in 10.0 mi East 9.2 mph - N/A   Scattered Clouds
12:53 PM 75.0 °F - 64.0 °F 69% 30.12 in 10.0 mi East 13.8 mph 21.9 mph 0.00 in Rain Light Rain
1:53 PM 77.0 °F - 63.0 °F 62% 30.11 in 10.0 mi East 12.7 mph 19.6 mph 0.00 in   Mostly Cloudy
2:53 PM 78.1 °F - 63.0 °F 60% 30.10 in 10.0 mi East 15.0 mph - N/A   Mostly Cloudy
3:53 PM 79.0 °F - 63.0 °F 58% 30.09 in 10.0 mi East 12.7 mph - N/A   Mostly Cloudy
4:53 PM 78.1 °F - 62.1 °F 58% 30.09 in 10.0 mi East 15.0 mph - N/A   Mostly Cloudy
5:53 PM 75.9 °F - 62.1 °F 62% 30.08 in 10.0 mi East 16.1 mph - N/A   Mostly Cloudy
6:53 PM 75.0 °F - 62.1 °F 64% 30.08 in 10.0 mi East 12.7 mph - N/A   Mostly Cloudy
7:53 PM 73.9 °F - 62.1 °F 66% 30.09 in 10.0 mi East 16.1 mph - N/A   Mostly Cloudy
8:53 PM 73.0 °F - 62.1 °F 68% 30.09 in 10.0 mi East 11.5 mph - N/A   Scattered Clouds
9:53 PM 73.0 °F - 61.0 °F 66% 30.11 in 10.0 mi East 9.2 mph - N/A   Partly Cloudy
10:53 PM 72.0 °F - 60.1 °F 66% 30.12 in 10.0 mi East 5.8 mph - N/A   Partly Cloudy
11:53 PM 71.1 °F - 60.1 °F 68% 30.11 in 10.0 mi East 5.8 mph - N/A   Scattered Clouds